Weather History for Cheyenne, WY

Change the Weather History Date:

Saturday, December 8, 2012

  Actual Average Record
Temperature  
Mean Temperature 28 °F 28 °F  
Max Temperature 40 °F 38 °F 64 °F (1940)
Min Temperature 15 °F 17 °F -19 °F (1919)
Degree Days  
Heating Degree Days 37 37  
Month to date heating degree days 200 293  
Since 1 July heating degree days 1741 2041  
Cooling Degree Days 0 0  
Month to date cooling degree days 0 0  
Year to date cooling degree days 568 348  
Moisture  
Dew Point 16 °F    
Average Humidity 61    
Maximum Humidity 85    
Minimum Humidity 37    
Precipitation  
Precipitation 0.02 in 0.02 in 0.43 in (2003)
Month to date precipitation 0.02 0.14  
Year to date precipitation 9.60 15.59  
Snow  
Snow 0.30 in 0.30 in 8.60 in (1958)
Month to date snowfall 0.3 2.3  
Since 1 July snowfall 10.9 16.6  
Snow Depth 0.00 in    
Sea Level Pressure  
Sea Level Pressure 29.79 in    
Wind  
Wind Speed 18 mph (WNW)    
Max Wind Speed 35 mph    
Max Gust Speed 45 mph    
Visibility 8 miles    
Events Fog , Snow    
T = Trace of Precipitation, MM = Missing Value Source: NWS Daily Summary

Daily Weather History Graph

Daily Weather History Graph

Search for Another Location

Airport:

Trip Planner

Search our weather history database for the weather conditions in past years. The results will help you decide how hot, cold, wet, or windy it might be!

Date:

Astronomy

Dec. 08, 2012 Rise Set
Actual Time 7:12 AM MST 4:30 PM MST
Civil Twilight 6:41 AM MST 5:01 PM MST
Nautical Twilight 6:06 AM MST 5:35 PM MST
Astronomical Twilight 5:33 AM MST 6:09 PM MST
Moon 1:37 AM MST (12/8) 1:03 PM MST (12/8)
Length of Visible Light 10h 19m
Length of Day
9h 17m
Waning Crescent, 27% of the Moon is Illuminated
Dec 8
Waning Crescent
Dec 13
New
Dec 19
First Quarter
Dec 28
Full
Jan 4
Last Quarter

Hourly Weather History & Observations

Time (MST) Temp. Windchill Dew Point Humidity Pressure Visibility Wind Dir Wind Speed Gust Speed Precip Events Conditions
12:53 AM 28.0 °F 16.5 °F 17.1 °F 63% 29.84 in 10.0 mi SW 15.0 mph - N/A   Scattered Clouds
1:53 AM 27.0 °F 17.3 °F 17.1 °F 66% 29.84 in 10.0 mi West 10.4 mph - N/A   Clear
2:53 AM 28.0 °F 16.5 °F 19.0 °F 69% 29.81 in 10.0 mi SW 15.0 mph - N/A   Overcast
3:53 AM 26.6 °F 16.2 °F 19.4 °F 74% 29.75 in 10.0 mi SSW 11.5 mph - N/A   Overcast
4:53 AM 26.1 °F 19.4 °F 19.9 °F 78% 29.78 in 10.0 mi SSW 5.8 mph - N/A   Overcast
5:53 AM 26.1 °F 15.6 °F 19.9 °F 78% 29.76 in 10.0 mi SSW 11.5 mph - N/A   Overcast
6:53 AM 32.0 °F 23.6 °F 14.0 °F 48% 29.74 in 10.0 mi WSW 10.4 mph - N/A   Overcast
7:53 AM 28.0 °F 20.0 °F 18.0 °F 66% 29.77 in 10.0 mi WSW 8.1 mph - N/A   Scattered Clouds
8:53 AM 37.9 °F 26.1 °F 16.0 °F 41% 29.68 in 10.0 mi West 27.6 mph 33.4 mph N/A   Overcast
9:53 AM 39.9 °F 29.5 °F 15.1 °F 36% 29.68 in 10.0 mi West 24.2 mph 36.8 mph N/A   Mostly Cloudy
10:41 AM 30.2 °F 15.7 °F 23.0 °F 75% 29.69 in 7.0 mi NNW 27.6 mph 36.8 mph 0.00 in   Mostly Cloudy
10:49 AM 28.4 °F 14.7 °F 23.0 °F 80% 29.69 in 1.8 mi NW 21.9 mph 35.7 mph 0.00 in Snow Light Snow
10:53 AM 28.0 °F 14.3 °F 24.1 °F 85% 29.76 in 0.8 mi NW 21.9 mph 35.7 mph 0.00 in Snow Light Snow
11:00 AM 28.4 °F 14.4 °F 24.8 °F 86% 29.68 in 0.2 mi NW 23.0 mph 33.4 mph 0.00 in Fog , Snow Snow
11:16 AM 26.6 °F 13.1 °F 24.8 °F 93% 29.69 in 0.2 mi WNW 19.6 mph 32.2 mph 0.00 in Fog , Snow Heavy Snow
11:23 AM 28.4 °F 17.0 °F 24.8 °F 86% 29.68 in 0.5 mi WNW 15.0 mph 28.8 mph 0.00 in Fog , Snow Light Snow
11:27 AM 28.4 °F 16.2 °F 24.8 °F 86% 29.68 in 1.0 mi WNW 17.3 mph 25.3 mph 0.01 in Snow Light Snow
11:39 AM 28.4 °F 17.5 °F 24.8 °F 86% 29.67 in 2.0 mi WNW 13.8 mph 20.7 mph 0.01 in Snow Light Snow
11:53 AM 30.9 °F 21.2 °F 23.0 °F 72% 29.73 in 6.0 mi NW 12.7 mph - 0.01 in Snow Light Snow
12:01 PM 32.0 °F 19.8 °F 23.0 °F 69% 29.66 in 10.0 mi NW 20.7 mph 26.5 mph 0.00 in   Scattered Clouds
12:53 PM 28.9 °F 16.5 °F 21.9 °F 75% 29.73 in 9.0 mi NW 18.4 mph 27.6 mph 0.00 in   Overcast
1:53 PM 30.9 °F 17.8 °F 18.0 °F 59% 29.72 in 10.0 mi WNW 23.0 mph 32.2 mph 0.00 in   Mostly Cloudy
2:53 PM 30.0 °F 16.9 °F 15.1 °F 54% 29.73 in 10.0 mi WNW 21.9 mph 32.2 mph N/A   Overcast
3:53 PM 26.1 °F 10.4 °F 14.0 °F 60% 29.81 in 10.0 mi WNW 26.5 mph 38.0 mph N/A   Overcast
4:53 PM 24.1 °F 9.0 °F 8.1 °F 51% 29.87 in 10.0 mi NW 21.9 mph 34.5 mph N/A   Overcast
5:53 PM 23.0 °F 9.6 °F 3.9 °F 44% 29.90 in 10.0 mi WNW 16.1 mph 25.3 mph N/A   Overcast
6:53 PM 21.9 °F 8.2 °F -0.9 °F 37% 29.92 in 10.0 mi WNW 16.1 mph 26.5 mph N/A   Overcast
7:53 PM 19.9 °F 3.2 °F -0.0 °F 42% 29.97 in 10.0 mi NW 23.0 mph 33.4 mph N/A   Clear
8:53 PM 19.0 °F 2.7 °F 1.9 °F 47% 29.92 in 10.0 mi WNW 20.7 mph 31.1 mph N/A   Partly Cloudy
9:53 PM 18.0 °F 0.9 °F 3.0 °F 52% 29.93 in 10.0 mi NW 21.9 mph 28.8 mph N/A   Clear
10:53 PM 17.1 °F -0.6 °F 3.9 °F 56% 29.96 in 10.0 mi NNW 23.0 mph 31.1 mph N/A   Scattered Clouds
11:53 PM 16.0 °F -0.9 °F 3.9 °F 59% 29.98 in 10.0 mi NNW 19.6 mph 31.1 mph N/A   Partly Cloudy